Location: Newark
(44.3290°N, 23.7757°E)
Time: 20:07:38
(UTC+00:00)

ISS - Visible Passes

Search period start: 16 January 2022 00:00
Search period end: 26 January 2022 00:00
Orbit: 414 x 422 km, 51.6° (Epoch: 16 January)

Date Brightness Start Highest point End Pass type
(mag) Time Alt. Az. Time Alt. Az. Time Alt. Az.
16 Jan -1.4 17:14:51 10° S 17:15:43 15° S 17:15:43 15° S visible
17 Jan -1.7 16:28:00 10° SSE 16:29:47 14° SE 16:30:10 14° SE visible
17 Jan -0.5 18:02:47 10° WSW 18:03:08 12° WSW 18:03:08 12° WSW visible
18 Jan -3.0 17:14:57 10° SW 17:17:30 45° SSW 17:17:30 45° SSW visible
19 Jan -2.9 16:27:19 10° SSW 16:30:23 35° SE 16:31:48 24° E visible
19 Jan -0.7 18:03:58 10° W 18:04:45 16° W 18:04:45 16° W visible
20 Jan -3.3 17:15:52 10° WSW 17:18:59 57° NW 17:18:59 57° NW visible
21 Jan -3.8 16:27:55 10° WSW 16:31:14 88° NW 16:33:10 23° ENE visible
21 Jan -0.6 18:05:27 10° WNW 18:06:06 14° WNW 18:06:06 14° WNW visible
22 Jan -2.5 17:17:15 10° W 17:20:14 32° NNW 17:20:14 32° NNW visible
23 Jan -2.9 16:29:06 10° W 16:32:17 41° NNW 16:34:20 19° NE visible
23 Jan -0.5 18:06:55 10° WNW 18:07:17 12° NW 18:07:17 12° NW visible
24 Jan -2.0 17:18:47 10° WNW 17:21:22 24° NNW 17:21:22 24° NNW visible
25 Jan -2.3 16:30:36 10° WNW 16:33:31 27° NNW 16:35:26 16° NE visible
25 Jan -0.5 18:08:11 10° NW 18:08:22 11° NW 18:08:22 11° NW visible
